Location: Baie de Bininou
(48.4788°N, 5.0814°W)
Time: 21:39:19
(UTC+00:00)

Daily predictions for brighter satellites

Satellite Brightness Start Highest point End
(mag) Time Altitude Azimuth Time Altitude Azimuth Time Altitude Azimuth
Meteor 2-10 Rocket 3.8 19:38:12 10° SSE 19:43:13 48° E 19:48:27 10° NNE
SL-8 R/B 3.8 19:38:37 10° W 19:43:27 81° SSW 19:48:18 10° ESE
BREEZE-M DEB (TANK) 3.7 19:40:53 10° SW 19:43:38 48° SE 19:49:50 10° ENE
Cosmos 2026 Rocket 4.4 19:42:41 10° N 19:48:28 44° ENE 19:54:16 10° SE
Cosmos 405 3.6 19:46:12 10° SSE 19:49:21 34° E 19:52:33 10° NNE
OBJECT-B 1.0 19:47:47 10° SSE 19:50:55 52° ENE 19:54:05 10° N
SL-27 R/B 3.8 19:49:34 10° SW 19:52:56 44° WNW 19:56:16 10° N
BREEZE-M DEB (TANK) 3.6 19:49:15 10° SW 19:53:00 75° SE 20:05:55 10° ENE
CZ-4 R/B 4.0 19:50:16 10° SSW 19:53:42 24° W 19:57:10 10° NW
NOSS 3-4 (A) 3.4 19:48:01 10° SW 19:53:52 85° SE 20:00:14 10° NE
NOSS 3-4 (C) 3.4 19:48:07 10° SW 19:53:59 85° SE 20:00:20 10° NE
Cosmos 1892 2.6 19:51:27 10° N 19:55:14 74° E 19:59:00 10° SSE
Cosmos 1606 Rocket 3.6 19:54:51 10° S 19:59:14 90° ENE 20:03:36 10° N
Cosmos 2322 Rocket 4.1 19:54:39 10° NW 19:59:34 31° WSW 20:04:29 10° SSW
Cosmos 2098 Rocket 4.4 19:52:37 10° N 19:59:37 71° E 20:07:01 10° SSE
Cosmos 2251 Rocket 4.3 19:56:56 10° SSE 20:01:38 32° E 20:06:20 10° NE
Cosmos 389 Rocket 4.3 20:00:15 10° ESE 20:02:09 14° E 20:04:04 10° NE
Cosmos 2333 Rocket 2.3 19:58:20 10° NNW 20:04:09 87° ENE 20:09:54 10° SSE
Cosmos 2297 Rocket 3.8 20:02:41 10° SE 20:05:22 14° E 20:08:03 10° ENE
BREEZE-M DEB (TANK) 1.8 20:03:18 10° W 20:06:06 69° N 20:08:17 11° E
Cosmos 1634 Rocket 4.2 20:00:39 10° SSE 20:06:39 49° E 20:12:38 10° NNE
ATLAS 2AS CENTAUR R/B 3.0 19:59:37 10° SSW 20:07:29 73° SE 20:15:15 10° NE
Cosmos 1825 2.5 20:04:17 10° N 20:07:58 47° ENE 20:11:37 10° SSE
NOSS 7 (H) 4.1 20:05:13 10° SSW 20:08:38 70° SE 20:11:34 10° NE
SPOT 3 Rocket 4.2 20:04:00 10° SE 20:08:45 38° ENE 20:13:31 10° N
Helios 1A Rocket 4.3 20:05:44 10° S 20:09:34 40° W 20:13:28 10° NNW
Cosmos 1726 Rocket 3.6 20:05:20 10° S 20:09:43 89° WNW 20:14:06 10° N
ARIANE 5 R/B 4.5 20:09:22 10° E 20:12:04 16° ENE 20:14:47 10° NNE
Ariane Rocket 3.0 20:09:04 10° SSE 20:14:06 75° ENE 20:19:09 10° NNW
Cosmos 2322 3.9 20:09:24 10° NNW 20:15:05 76° WSW 20:20:43 10° SSE
Cosmos 2228 4.0 20:11:35 10° SSW 20:15:49 52° WNW 20:20:04 10° N
Cosmos 1408 2.6 20:12:28 10° N 20:16:02 82° W 20:19:35 10° S
Orbus 7S? 3.2 20:15:48 10° SSW 20:18:27 48° SE 20:23:05 10° ENE
CZ-4C R/B 3.3 20:14:49 10° WSW 20:19:47 47° NW 20:25:50 10° NE
RESURS DK-1 2.6 20:17:16 10° S 20:21:13 47° ESE 20:25:12 10° NE
Landsat 7 4.5 20:20:38 14° SE 20:24:21 39° ENE 20:28:46 10° N
NOSS 7 (E) 4.3 20:23:29 10° SSW 20:27:17 65° SE 20:30:24 10° NE
Meteor 2-1 Rocket 4.4 20:22:23 10° S 20:28:04 59° E 20:33:54 10° NNE
Cosmos 2058 2.9 20:24:52 10° N 20:29:05 78° E 20:33:15 10° SSE
Cosmos 482 Debris 3.6 20:30:02 10° W 20:32:31 49° NNW 20:33:56 16° NE
SL-16 R/B 3.8 20:29:34 10° N 20:33:59 22° NE 20:37:53 12° E
USA 186 4.0 20:32:01 10° SSW 20:34:44 25° W 20:37:23 10° NW
Cosmos 1980 4.1 20:30:15 10° NNW 20:35:48 50° NE 20:39:44 19° SE
Cosmos 2058 Rocket 3.2 20:31:31 10° SSW 20:35:52 78° W 20:40:15 10° N
COSMOS 2487 3.2 20:32:45 10° SW 20:36:06 54° WNW 20:39:28 10° NNE
Cosmos 614 Rocket 4.3 20:31:22 10° S 20:36:13 43° ESE 20:41:03 10° NE
Cosmos 1992 Rocket 4.3 20:31:30 10° NNW 20:36:41 67° WSW 20:41:50 10° S
BREEZE-M DEB (TANK) 3.7 20:33:17 10° WSW 20:37:13 86° SSE 20:51:35 10° ENE
Cosmos 2360 Rocket 4.2 20:35:52 10° NW 20:40:24 25° WSW 20:44:54 10° SSW
Cosmos 2151 3.8 20:39:24 10° N 20:43:21 34° ENE 20:45:17 23° ESE
COSMOS 2428 3.0 20:38:57 10° NNW 20:44:39 67° WSW 20:49:50 13° SSE
Meteor 2-3 Rocket 4.5 20:39:55 10° N 20:45:15 37° ENE 20:48:26 21° ESE
Cosmos 2344 3.5 20:38:24 10° SSW 20:45:49 72° SE 20:53:42 10° NE
Cosmos 1076 Rocket 3.5 20:42:55 10° N 20:47:16 65° ENE 20:50:07 21° SSE
FALCON 9 DEB 3.2 20:44:01 10° SW 20:47:21 52° SSE 20:49:44 17° ENE
ATLAS 3B R/B 2.9 20:40:26 10° NW 20:47:27 77° SW 20:53:12 18° SSE
Cosmos 192 4.4 20:44:27 10° NNW 20:49:25 64° ENE 20:52:27 23° SE
USA 215 3.3 20:45:38 18° ESE 20:50:39 81° NNE 20:57:13 10° NW
Cosmos 1812 Rocket 3.9 20:47:57 19° SSE 20:50:51 45° E 20:55:07 10° NNE
Cosmos 1818 3.5 20:48:20 10° SSW 20:53:43 71° SE 20:59:11 10° NE
IRIDIUM 114 4.3 20:49:08 13° SSE 20:53:47 63° E 20:58:57 10° N
Resurs 01 Rocket 1.6 20:50:18 16° SSE 20:53:48 89° WSW 20:58:17 10° NNW
Cosmos 1455 3.2 20:51:13 10° SSW 20:54:50 47° WNW 20:58:29 10° N
Cosmos 44 3.4 20:50:46 10° SSW 20:55:53 82° SE 21:01:19 10° NE
Cosmos 407 Rocket 4.0 20:53:35 20° SSE 20:56:33 36° ESE 21:01:15 10° NE
ERS-1 Rocket 4.0 20:54:40 22° ESE 20:56:51 30° ENE 21:01:12 10° N
Cosmos 2219 Rocket 3.1 20:52:14 10° NW 20:57:38 45° WSW 21:02:59 10° S
NOSS 0 Rocket 4.0 20:52:31 10° NNW 20:58:47 86° WSW 21:03:07 21° SSE
Meteor 2-21 4.4 20:55:30 10° N 21:01:31 65° ENE 21:05:28 22° SSE
IRIDIUM 103 4.2 20:58:16 13° S 21:02:55 75° E 21:08:09 10° N
Cosmos 1633 2.7 20:59:39 10° N 21:03:13 52° ENE 21:04:10 39° SE
Cosmos 1356 3.6 21:00:34 10° NNW 21:03:59 69° W 21:05:42 27° S
CARTOSAT-1 4.2 21:04:22 30° ESE 21:05:48 39° ENE 21:09:51 10° N
IGS 5A 3.5 21:04:09 22° S 21:06:44 78° WSW 21:10:55 10° NNW
ATLAS 5 CENTAUR R/B 4.4 21:03:52 10° WNW 21:06:59 18° NNW 21:10:25 10° NNE
Lacrosse 5 rocket 3.4 21:05:05 10° WNW 21:08:40 27° N 21:12:25 10° NE
Cosmos 405 Rocket 3.2 21:06:02 10° NNW 21:10:01 59° W 21:12:30 21° S
Cosmos 909 Rocket 4.0 21:05:51 10° SSW 21:12:11 86° ESE 21:18:42 10° NE
Cosmos 1809 Rocket 4.4 21:10:44 10° N 21:16:51 85° W 21:21:10 21° S
COSMOS 2455 4.1 21:18:15 21° E 21:18:15 21° E 21:21:41 10° ENE
SPOT 5 3.3 21:19:30 34° ESE 21:20:46 42° ENE 21:25:15 10° N
Cosmos 1140 Rocket 3.6 21:18:31 28° SSE 21:20:54 51° ESE 21:25:52 10° NNE
IRIDIUM 106 4.4 21:16:33 13° S 21:21:13 78° W 21:26:28 10° N
OBJECT-B 4.1 21:23:01 10° W 21:23:27 10° W 21:23:54 10° W
Spot 2 Rocket 3.4 21:21:43 34° SSE 21:23:57 74° ENE 21:29:02 10° N
Cosmos 2237 Rocket 2.2 21:19:05 10° NNW 21:24:45 83° WSW 21:27:26 33° SSE
CZ-2C R/B 3.6 21:21:25 10° NNE 21:25:54 88° WNW 21:28:54 21° SSW
Cosmos 2279 Rocket 4.2 21:20:46 10° SSW 21:26:55 71° W 21:33:08 10° N
Terra 2.5 21:28:59 34° E 21:30:02 39° ENE 21:34:28 10° N
Cosmos 389 Rocket 3.6 21:33:58 17° SW 21:36:24 42° WNW 21:39:50 10° N
Cosmos 2227 Rocket 2.2 21:38:45 34° S 21:41:05 58° ESE 21:46:39 10° NE
SPOT 1/Viking Rocket 3.8 21:38:50 30° S 21:41:26 65° WSW 21:46:39 10° NNW
ARIANE 5 R/B 2.7 21:46:52 47° SSW 21:48:02 69° WSW 21:52:27 10° NNW
Cosmos 2297 Rocket 2.1 21:43:48 15° SSW 21:48:28 82° ESE 21:54:10 10° NNE
Cosmos 1190 Rocket 3.8 21:47:49 35° S 21:50:04 77° ESE 21:55:18 10° NNE
Cosmos 2266 Rocket 4.1 21:44:49 10° NNW 21:51:14 75° W 21:54:23 32° S
Cosmos 2219 3.0 21:47:37 23° SSW 21:51:14 78° ESE 21:56:53 10° NNE
H-2A R/B 4.1 21:50:20 10° NNE 21:53:41 42° ENE 21:53:41 42° ENE
ATLAS 2AS CENTAUR R/B 4.2 21:51:39 10° WSW 21:59:05 42° NNW 22:06:19 10° NE
Timation 2 Rocket 3.9 21:54:58 17° SSW 22:00:18 79° ESE 22:06:38 10° NNE
Genesis I 3.3 21:56:22 10° NW 22:00:14 73° WSW 22:00:14 73° WSW
Cosmos 1763 Rocket 3.8 21:57:24 10° NNW 22:02:20 48° ENE 22:02:58 45° E
BREEZE M DEB (TANK) 4.3 21:59:04 15° SW 22:02:43 57° SE 22:17:17 10° ENE
Cosmos 1862 4.4 21:59:05 10° N 22:02:04 34° NE 22:02:04 34° NE
Cosmos-2242 3.5 22:02:37 40° SW 22:03:56 58° WNW 22:08:13 10° N
Cosmos 1408 Rocket 3.9 22:02:12 10° N 22:06:07 51° ENE 22:06:07 51° ENE
JB-3 4.4 22:02:36 10° N 22:06:45 74° WNW 22:07:01 70° WSW
Cosmos 676 Rocket 3.8 22:07:09 64° SE 22:07:30 67° ESE 22:12:40 10° NNE
CRYOSAT 2 4.4 22:10:15 62° E 22:10:28 63° E 22:15:20 10° N
SL-16 R/B 2.1 22:13:07 10° NNW 22:18:51 85° WSW 22:19:46 64° SSE
Cosmos 540 Rocket 4.2 22:16:52 10° N 22:21:43 40° ENE 22:22:04 39° ENE
Cosmos 1743 Rocket 4.4 22:17:51 10° N 22:21:17 38° NE 22:21:17 38° NE
Meteor 2-15 Rocket 4.4 22:22:07 58° SE 22:22:50 62° E 22:28:49 10° NNE
NOSS 3-1 (C) 4.2 22:18:13 10° NW 22:25:28 66° NE 22:28:42 39° ESE
Cosmos 1244 Rocket 4.4 22:19:19 10° N 22:25:44 81° E 22:27:02 59° SSE
SL-08 ROCKET BODY 4.4 22:21:04 10° N 22:27:08 62° ENE 22:27:52 57° ESE
Cosmos 2221 3.3 22:30:07 43° NE 22:30:07 43° NE 22:33:10 10° NNE
SL-08 R/B 4.4 22:24:43 10° N 22:30:52 66° ENE 22:31:43 59° ESE
Resurs 01 Rocket 4.4 22:29:52 10° W 22:30:58 11° W 22:32:04 10° WNW
USA 215 3.9 22:32:58 35° SSW 22:34:03 38° SW 22:40:05 10° WNW
Cosmos 44 Rocket 4.3 22:36:36 38° ENE 22:36:36 38° ENE 22:40:00 10° NE
ERS-1 Rocket 3.8 22:34:39 38° WSW 22:35:30 41° W 22:40:16 10° NNW
Okean 3 Rocket 4.5 22:32:11 10° NNW 22:36:28 42° W 22:36:44 41° WSW
Cosmos 1553 Rocket 3.9 22:39:11 63° ESE 22:39:32 64° E 22:45:33 10° NNE
Cosmos 1500 Rocket 4.1 22:37:10 10° N 22:40:50 55° NNE 22:40:50 55° NNE
Meteor 1-4 Rocket 4.3 22:44:18 31° NNW 22:44:18 31° NNW 22:46:37 10° N
Cosmos 1943 3.7 22:43:00 10° NNW 22:48:27 47° NE 22:48:59 46° ENE
Lacrosse 5 rocket 3.0 22:44:54 10° NW 22:48:47 31° NNE 22:49:47 28° NE
ALOS 2 4.2 22:49:56 27° NE 22:49:56 27° NE 22:52:59 10° N
Cosmos 1417 Rocket 4.4 22:49:46 65° ESE 22:50:08 67° E 22:56:22 10° NNE
BREEZE M DEB (TANK) 4.3 22:48:12 10° W 22:50:13 21° W 22:50:13 21° W
Cosmos 1850 Rocket 4.4 22:54:08 52° NE 22:54:08 52° NE 22:58:17 10° NNE
SPOT 5 4.4 22:58:43 24° W 22:59:03 24° W 23:02:54 10° NW
Meteor 2-2 Rocket 4.3 23:00:49 67° WSW 23:01:24 73° WNW 23:07:09 10° N
COSMOS 2455 2.9 23:01:18 57° WSW 23:02:32 77° NW 23:08:36 10° NNE
SeaSat 1 2.9 23:00:34 10° NNE 23:04:24 53° NE 23:04:24 53° NE
Terra 3.2 23:07:51 29° W 23:07:53 29° W 23:12:01 10° NW
Cosmos 2237 Rocket 4.4 23:05:10 10° WNW 23:07:53 14° W 23:09:16 13° WSW
Cosmos 2082 4.4 23:21:01 40° W 23:22:27 50° NW 23:27:56 10° NNE
Cosmos 2263 Rocket 2.7 23:24:25 50° ENE 23:24:25 50° ENE 23:28:41 10° NNE
Cosmos 2227 Rocket 3.9 23:20:34 10° WSW 23:25:30 30° NW 23:30:28 10° NNE
Cosmos 841 Rocket 4.0 23:27:18 10° NNW 23:31:35 54° WNW 23:31:35 54° WNW
USA 229 DEB 3.7 23:25:18 10° NW 23:32:37 85° SW 23:33:33 72° SSE
USA 229 3.7 23:25:24 10° NW 23:32:43 86° SW 23:33:40 71° SSE
Cosmos 1603 3.8 23:27:16 10° NNW 23:32:30 74° NW 23:32:30 74° NW
Cosmos 2297 Rocket 4.3 23:28:47 10° W 23:33:14 23° NW 23:37:42 10° N
Meteor 2-17 Rocket 4.4 23:27:36 10° N 23:33:43 79° ENE 23:33:43 79° ENE
USA 281 4.1 23:33:03 34° E 23:34:58 41° NE 23:41:03 10° NNW
Cosmos 921 Rocket 4.4 23:35:49 10° NNW 23:38:35 36° NW 23:38:35 36° NW
Cosmos 1814 Rocket 4.4 23:35:12 10° NNW 23:39:37 60° NW 23:39:37 60° NW
Cosmos 1745 Rocket 4.2 23:34:47 10° NNW 23:40:58 57° W 23:41:13 56° WSW
Cosmos 1709 Rocket 3.9 23:40:36 10° N 23:46:44 83° WNW 23:46:44 83° WNW
NOSS 3-1 (A) 3.9 23:43:01 10° NW 23:50:29 77° SW 23:51:29 69° S
Meteor 1-25 Rocket 4.4 23:44:55 10° NNW 23:50:08 72° NW 23:50:08 72° NW
